Probability
36 37 38 35 29 27 28 22 13 13 16 17 14 14 15 13 14 21 26 27 27 27 25 19 13 9 7 4 1 0 0 0 0 0 0 0 0 0 0 0 0 0 0
42 41 41 39 35 33 32 25 17 18 20 20 20 21 22 21 21 24 26 23 23 23 23 21 17 12 8 5 2 1 1 0 0 0 0 0 0 0 0 0 0 0 0
44 44 43 43 40 37 34 28 25 26 26 23 25 29 31 31 30 29 26 21 18 18 18 19 20 20 14 8 3 2 3 2 1 0 0 0 0 0 0 0 0 0 0
39 40 42 42 37 33 30 27 27 29 25 21 24 29 32 33 30 28 24 19 15 13 13 16 21 24 19 10 6 5 7 7 5 2 0 0 0 0 0 0 0 0 0
31 35 38 37 32 29 26 23 23 22 18 14 17 21 23 24 23 21 19 16 13 12 11 13 17 19 16 11 8 9 10 11 8 4 2 1 1 0 0 0 0 0 0
27 31 34 33 30 28 25 22 20 17 13 10 10 11 11 12 13 13 12 12 12 11 9 9 10 11 11 10 10 11 11 9 7 5 4 3 2 0 0 0 0 0 0
26 27 28 28 28 27 24 21 19 16 11 9 8 7 6 5 5 5 6 7 8 8 6 4 4 6 8 8 9 9 9 7 5 5 4 2 1 0 0 0 0 0 0
23 22 23 23 24 23 21 18 15 13 10 8 8 7 4 2 1 1 2 3 5 5 3 2 2 3 5 5 6 6 7 5 4 3 2 1 0 0 0 0 0 0 0
18 18 18 18 19 18 17 14 12 11 9 7 6 6 4 3 1 0 1 2 2 2 2 1 1 1 2 3 3 3 4 3 2 1 1 0 0 0 0 0 0 0 0
13 13 12 12 12 12 12 11 10 10 9 7 5 5 5 4 1 0 0 1 1 1 1 0 0 0 1 2 2 1 1 1 0 0 0 0 0 0 0 0 0 0 0
7 8 8 7 7 7 8 9 9 9 8 7 6 5 4 3 1 0 0 0 0 0 0 0 0 0 0 1 1 0 0 0 0 0 0 0 0 0 0 0 0 0 0
5 5 4 4 4 4 5 7 7 7 7 7 7 5 4 3 1 0 0 0 0 0 0 0 0 0 0 0 0 0 0 0 0 0 0 0 0 0 0 0 0 0 0
2 3 3 3 3 3 4 4 5 6 6 6 6 5 3 3 2 0 0 0 0 0 0 0 0 0 0 0 0 0 0 0 0 0 0 0 0 0 0 0 0 0 0
1 2 3 3 3 3 3 3 4 5 6 6 6 5 2 2 1 0 0 0 0 0 0 0 0 0 0 0 0 0 0 0 0 0 0 0 0 0 0 0 0 0 0
1 2 3 3 3 3 3 3 4 4 5 5 5 4 1 0 0 0 0 0 0 0 0 0 0 0 0 0 0 0 0 0 0 0 0 0 0 0 0 0 0 0 0
0 1 2 2 2 2 3 3 3 3 3 3 3 2 0 0 0 0 0 0 0 0 0 0 0 0 0 0 0 0 0 0 0 0 0 0 0 0 0 0 0 0 0
0 0 1 1 1 1 1 2 2 2 1 1 1 0 0 0 0 0 0 0 0 0 0 0 0 0 0 0 0 0 0 0 0 0 0 0 0 0 0 0 0 0 0
0 0 0 0 0 0 0 1 1 1 0 0 0 0 0 0 0 0 0 0 0 0 0 0 0 0 0 0 0 0 0 0 0 0 0 0 0 0 0 0 0 0 0
0 0 0 0 0 0 0 0 0 0 0 0 0 0 0 0 0 0 0 0 0 0 0 0 0 0 0 0 0 0 0 0 0 0 0 0 0 0 0 0 0 0 0
0 0 0 0 0 0 0 0 0 0 0 0 0 0 0 0 0 0 0 0 0 0 0 0 0 0 0 0 0 0 0 0 0 0 0 0 0 0 0 0 0 0 0
0 0 0 0 0 0 0 0 0 0 0 0 0 0 0 0 0 0 0 0 0 0 0 0 0 0 0 0 0 0 0 0 0 0 0 0 0 0 0 0 0 0 0
0 0 0 0 0 0 0 0 0 0 0 0 0 0 0 0 0 0 0 0 0 0 0 0 0 0 0 0 0 0 0 0 0 0 0 0 0 0 0 0 0 0 0
0 0 0 0 0 0 0 0 0 0 0 0 0 0 0 0 0 0 0 0 0 0 0 0 0 0 0 0 0 0 0 0 0 0 0 0 0 0 0 0 0 0 0
0 0 0 0 0 0 0 0 0 0 0 0 0 0 0 0 0 0 0 0 0 0 0 0 0 0 0 0 0 0 0 0 0 0 0 0 0 0 0 0 0 0 0
0 0 0 0 0 0 0 0 0 0 0 0 0 0 0 0 0 0 0 0 0 0 0 0 0 0 0 0 0 0 0 0 0 0 0 0 0 0 0 0 0 0 0
0 0 0 0 0 0 0 0 0 0 0 0 0 0 0 0 0 0 0 0 0 0 0 0 0 0 0 0 0 0 0 0 0 0 0 0 0 0 0 0 0 0 0
Wind_Speed
1 1 0 1 2 3 3 2 3 4 4 5 5 3 1 1 1 3 4 8 9 8 9 10 10 9 9 8 8 7 7 6 6 6 6 6 6 6 6 5 5 5 5
1 1 1 1 1 1 2 3 3 3 3 3 3 2 1 0 1 3 5 5 7 7 6 8 9 9 9 8 8 7 7 7 7 7 8 8 7 7 7 7 7 7 7
1 1 2 1 1 1 1 2 3 3 2 2 2 1 1 1 2 3 4 3 4 6 6 6 7 8 8 9 8 8 7 8 8 9 9 8 8 8 8 8 8 8 8
2 1 1 1 1 2 1 2 2 2 2 2 1 1 0 1 1 2 2 2 3 4 5 6 7 8 8 8 9 9 9 9 10 10 10 10 10 10 9 9 9 9 9
2 2 1 1 1 2 1 2 1 1 2 2 1 1 1 1 1 2 2 2 3 3 3 6 8 8 8 8 9 10 10 11 11 11 11 11 11 11 11 11 11 11 10
3 3 2 1 2 2 1 1 1 1 1 1 1 1 2 2 2 2 2 2 3 4 4 4 4 6 9 9 10 11 12 13 12 12 12 12 13 13 12 12 11 11 11
4 3 3 2 2 2 2 2 1 2 1 2 2 2 2 3 4 3 2 3 3 4 4 5 4 4 5 11 11 13 13 14 13 13 14 14 13 13 12 11 11 11 11
5 4 3 3 3 2 2 2 1 1 1 2 2 3 2 2 3 4 3 3 3 4 5 6 6 6 6 5 9 14 15 15 15 14 14 13 13 12 12 11 10 10 10
5 5 5 4 4 3 2 2 2 2 2 2 2 2 3 3 2 2 4 4 4 4 5 6 7 7 8 6 7 12 16 15 15 14 13 12 12 11 11 10 10 10 9
6 6 6 5 5 4 3 3 2 2 1 1 1 1 1 3 4 3 2 4 5 6 5 6 7 7 7 6 9 14 15 14 13 13 12 12 11 10 10 9 9 8 8
6 6 6 5 5 4 4 3 3 2 1 0 1 1 2 2 2 4 4 3 4 5 5 5 6 6 7 6 6 11 14 13 12 12 11 10 9 9 9 8 8 7 7
5 7 6 6 5 4 4 4 3 3 3 2 2 2 2 2 3 3 4 4 4 4 5 4 5 5 5 5 8 13 12 12 11 10 9 9 8 8 7 7 6 6 6
5 6 6 5 5 5 5 4 4 4 4 3 3 2 2 2 2 3 6 5 5 3 3 3 3 3 4 3 5 11 11 10 9 8 7 6 6 6 5 5 5 5 5
5 5 6 6 6 6 6 5 5 4 4 4 4 3 3 3 3 4 5 6 6 3 3 3 2 2 2 3 5 7 6 9 8 6 6 5 5 5 4 4 4 4 3
5 6 6 6 6 7 6 6 5 5 4 4 4 4 4 3 3 4 4 4 5 5 3 3 2 2 3 3 5 4 4 7 7 6 5 5 5 4 4 4 4 3 2
5 5 6 6 7 7 7 6 5 6 6 6 5 6 5 4 4 4 3 3 3 5 5 3 3 4 4 5 6 4 4 8 8 8 6 5 5 4 4 4 4 3 2
6 6 6 6 7 7 7 7 7 7 8 7 7 7 6 5 4 3 3 3 3 4 7 4 3 4 4 3 4 4 4 5 5 8 8 7 6 5 5 4 4 3 2
6 6 6 7 8 8 7 8 9 8 8 8 8 8 7 6 5 4 4 4 4 4 7 8 5 3 4 4 4 5 5 6 5 9 10 8 7 7 6 6 5 4 4
6 6 7 7 8 7 8 8 8 8 8 8 8 9 8 7 7 6 6 5 5 5 5 6 5 3 3 3 3 3 3 3 5 8 10 9 9 9 9 8 7 6 6
6 7 7 8 9 10 9 8 8 8 8 9 9 9 9 9 7 6 6 6 5 5 5 5 4 3 2 3 2 2 2 2 3 5 7 8 10 11 10 10 9 8 8
8 7 8 9 9 9 10 9 7 8 7 8 8 8 9 11 12 8 7 5 5 4 4 4 3 3 2 2 1 1 2 1 1 2 2 4 5 5 6 9 10 11 10
7 7 9 9 10 9 13 15 10 7 6 7 6 5 7 9 10 11 12 10 8 5 4 3 3 3 3 2 2 1 1 1 0 0 1 2 4 4 5 5 10 13 13
6 7 7 8 8 11 15 15 13 6 7 7 7 6 7 9 9 6 7 9 9 10 8 5 5 4 4 3 3 3 3 2 0 2 1 2 1 2 3 5 13 14 13
5 6 6 7 7 10 14 14 12 5 6 6 7 7 7 8 9 7 5 6 6 7 7 6 5 5 4 4 4 3 2 1 1 2 0 1 1 1 2 3 11 14 13
5 5 5 6 6 8 12 13 10 3 5 6 8 9 8 8 11 10 5 5 5 4 5 6 5 3 2 2 2 3 3 2 1 1 1 1 1 1 1 2 6 13 13
4 5 5 6 6 6 10 13 11 4 3 4 5 7 11 9 10 10 6 5 5 3 2 1 1 1 2 2 2 1 2 2 2 2 2 2 2 2 2 2 2 4 6
Wind_Direction
299 302 275 199 211 213 212 227 230 237 243 263 263 248 236 241 140 120 130 152 153 155 163 169 174 177 176 177 177 173 168 162 151 142 135 126 116 113 111 107 99 91 85
337 310 274 246 260 234 209 215 231 239 239 247 272 294 358 23 21 106 120 145 144 148 165 166 172 174 175 170 166 165 159 151 142 134 125 118 113 108 104 99 93 88 82
357 338 311 305 294 284 265 250 254 249 231 244 266 304 348 19 40 68 97 125 134 140 149 158 159 161 166 163 158 155 150 143 137 130 123 118 112 105 99 93 91 87 83
356 339 318 315 304 289 276 263 256 259 250 226 233 240 217 58 62 74 79 110 119 124 139 142 139 141 148 153 155 151 146 137 130 125 121 116 110 104 98 95 91 87 83
358 341 327 318 296 274 270 281 293 282 258 225 194 127 99 84 71 93 89 88 102 112 126 135 128 125 131 142 147 144 137 130 123 118 115 110 106 102 98 94 89 86 83
10 350 315 314 305 295 290 288 289 264 248 175 143 99 85 72 68 76 79 81 85 103 109 116 115 112 112 122 134 138 133 127 120 118 115 110 105 102 98 94 90 85 81
7 353 339 328 305 284 275 271 237 228 218 153 132 114 82 65 58 54 61 78 81 88 96 96 97 96 103 105 110 116 120 116 111 108 104 104 103 100 97 94 91 86 82
8 359 354 331 329 310 298 296 281 237 216 188 169 151 145 101 55 44 47 61 74 79 85 86 93 92 94 94 105 107 108 111 112 108 106 106 104 102 100 97 95 91 86
21 11 2 352 346 339 341 325 293 252 229 208 181 161 157 158 127 62 47 52 59 66 74 79 82 85 90 90 97 97 103 105 108 109 108 109 106 102 100 97 93 90 86
27 20 16 9 1 1 356 340 339 299 235 209 175 137 105 131 143 129 73 57 62 61 65 82 83 81 83 87 95 101 100 100 106 108 107 107 105 102 98 94 90 88 87
31 23 22 15 9 8 6 9 9 10 3 282 151 136 126 108 111 133 133 110 70 52 55 69 80 81 84 86 91 102 102 101 103 106 108 108 107 105 101 97 92 89 86
32 23 24 21 18 16 14 15 22 34 34 46 72 92 122 138 141 128 132 127 102 68 55 59 74 80 85 94 111 113 109 104 103 106 109 112 113 111 109 106 102 96 89
34 21 23 21 21 22 25 24 35 35 42 55 64 65 71 80 103 114 126 127 113 96 75 57 63 82 100 96 115 122 118 115 112 112 115 117 115 115 114 107 102 97 89
39 26 26 28 28 28 36 37 40 39 44 53 63 73 78 79 95 117 130 133 123 109 99 103 72 88 106 112 126 127 125 132 130 127 128 126 125 124 123 118 111 103 91
44 41 38 37 35 35 37 44 48 47 45 50 60 70 80 85 93 101 114 129 136 138 129 148 144 143 138 138 149 151 147 153 153 152 149 140 134 134 138 135 131 125 114
44 46 47 44 41 39 37 42 50 48 55 55 64 70 72 81 92 106 116 106 111 127 128 144 149 151 160 163 170 168 170 167 171 170 166 159 156 156 153 150 152 152 145
45 47 49 53 50 46 43 46 51 50 55 54 57 69 73 78 87 95 102 101 98 108 117 117 126 145 157 159 163 178 176 177 179 181 177 175 177 175 169 169 173 176 185
45 48 49 53 56 52 47 50 51 51 54 56 56 62 63 69 74 80 86 96 103 106 122 128 134 151 165 174 177 188 186 180 173 181 184 186 188 187 189 194 198 202 206
49 49 51 52 51 51 51 51 53 53 54 54 54 55 54 56 58 63 75 80 92 103 110 125 134 145 163 181 184 200 189 167 177 175 185 195 200 200 203 206 209 210 213
55 52 51 51 50 45 41 45 56 57 58 59 59 58 54 53 54 59 71 72 85 95 107 119 130 144 151 181 182 181 172 191 186 174 183 190 202 208 211 213 213 215 219
62 56 55 52 51 47 31 27 46 64 63 64 65 71 72 69 65 62 69 64 76 88 102 114 127 130 130 142 173 208 167 180 191 155 175 192 187 201 212 221 220 221 223
60 60 59 56 49 39 22 26 30 46 54 58 63 70 79 66 68 73 76 71 64 70 74 86 98 97 85 64 27 34 77 87 117 288 190 241 181 193 203 196 207 214 221
63 66 70 66 56 32 23 21 21 43 57 54 50 49 59 57 45 49 70 73 62 54 58 73 74 73 70 46 28 28 39 45 309 251 256 284 225 204 211 193 195 208 217
67 69 69 66 58 36 23 17 9 49 60 59 56 56 60 47 31 24 53 68 68 53 52 62 62 59 59 34 16 3 343 338 294 283 197 273 275 240 193 182 201 208 216
79 80 76 70 60 40 23 16 9 51 70 66 61 49 49 48 28 27 45 64 72 71 75 79 77 76 68 48 23 357 351 4 339 318 355 323 309 309 264 211 212 213 221
89 86 79 71 64 51 28 23 14 33 76 91 90 75 55 44 32 30 34 46 50 36 48 89 95 233 228 227 234 279 338 356 3 351 350 352 338 342 323 289 228 203 227